CZ-3B DEB, 40162

Orbit data source: Space-Track

CZ-3B DEB, 40162 is space debris in HEO originally from a launch on Sat, 04 Sep 2010 UTC launched from the Xichang Space Center, China (XSC). Debris objects in space refer to the collection of defunct objects orbiting the Earth. Examples of debris include non-operational satellites, rocket bodies, and fragments generated from explosions, collisions, or faulty payload assembly.

Loading next visibility...
Identifier
40162, 2010-042P
Orbit
HEO
Country
Flag of CNCN / PRC
Related business
Manufacturer
CALT
Mission
Spacecraft
Bus & Motor
Unknown
Mass
Unknown
Launch date (UTC)
2010-09-04 (16 years ago)
Launch vehicle
Unknown
Launch site
Xichang Space Center, China (XSC)
Object type
Payload
Rocket body
Debris
Shape & HBR
Unknown shape, 0.2 m
Radar Cross Section
Medium (>0.1 m² and <1 m²)

Expand to show TLE details & history
Last TLE update: 1 day ago

TLE from 1 day ago
0 CZ-3B DEB
1 40162U 10042P   26235.21315118  .00000030  00000-0  00000-0 0  9993
2 40162  26.4118 240.4319 7240638  23.6484 357.4393  1.92056731 89495
Epoch: 2026-08-23T05:06Z
TLE epoch observation values (Epoch: 2026-08-23T05:06:56.261Z)
Latitude
Longitude
-167.87111°
Altitude
1,450.768 km
Speed
9.34 km/s
True Right ascension
16h 01m 30s
True Declination
0° 00' 00"
Sunlit
Object was in daylight at epoch
Visualization orbit readout
Latitude
Unknown
Longitude
Unknown
Altitude
Unknown
Speed
Unknown
Apparent Right ascension
Unknown
Apparent Declination
Unknown
Sunlit
N/A
Visualization observer readout
Local Sidereal Time
00:47:20
Azimuth
Unknown
Elevation
Unknown
Doppler factor
Unknown
Orbital elements
Apogee altitude
40,761.974 km
Perigee altitude
1,166.632 km
Semi-major axis
27,342.44 km
Eccentricity
0.72406
Inclination
26.4118°
RAAN
240.4319°
Arg. of periapsis
23.6484°
True anomaly
337.31255°
Mean anomaly
357.4393°
Eccentric anomaly
350.82279°
Mean motion
0.48005 °/min
Orbital period
749.92 mins
BSTAR
0
Loading maneuver chart data...
Computing Atmospheric mass density...
Loading historical data...
Loading historical data...
Loading historical data...
Loading historical data...
Loading historical data...
Loading historical data...
Loading historical data...

Documentation

Showing up to 5 results
|